Main page


Airports :

Kashan, Iran

latitude: 33-59N, longitude: 051-27E, elevation: 982 m

Current weather observation

The report was made 2 hours and 0 minutes ago, at 08:00 UTC
Wind 6 kt from the North/Northwest
Temperature 15°C
Humidity 36%
Pressure 1014 hPa
Visibility 10 km or more
Few clouds at a height of 4000 ft

METAR: OIFK 180800Z 33006KT 9999 FEW040 15/00 Q1014

Time: 13:30 (10:00 UTC)

TAF: missing

Weather observations and forecasts of more than 4000 airports (METAR and TAF reports).

The available stations are represented by yellow and red dots on the map.

Hover mouse over dot to see the name of the station.

Then click to see weather observations and forecasts.

To change the map : click on the green buttons with a black cross to zoom in, on the green button with a dash to zoom out, or on the green arrows for adjacent maps.